[Date Prev][Date Next][Thread Prev][Thread Next] - [Date Index][Thread Index][Author Index]

2 Line ISS Keps 10-26



ISS
1 25544U 98067A   05298.95526439  .00015923  00000-0  11199-3 0  6213
2 25544 051.6455 310.8412 0001210 093.1943 346.6180 15.74323396396267
----
Via the sarex mailing list at AMSAT.ORG courtesy of AMSAT-NA.
To unsubscribe, send "unsubscribe sarex" to Majordomo@amsat.org



AMSAT Top AMSAT Home